KN4URY Weather Reports


Display with metric or nautical units.
time (UTC)temp
F
wind
direction
speed
MPH
gust
MPH
rain 1hr
in
rain 24hr
in
rain mn
in
humidity
%
barometer
mb
20260905082823 71 341 0.0 0.0 0.00 0.08 0.00 95 1011.3
20260905082351 71 341 0.0 0.0 0.00 0.08 0.00 95 1011.4
20260905081830 71 341 0.0 1.0 0.00 0.08 0.00 95 1011.3
20260905081355 71 341 0.0 3.0 0.00 0.08 0.00 95 1011.5
20260905080834 71 341 0.0 3.0 0.00 0.08 0.00 95 1011.5
20260905080331 71 341 1.0 2.0 0.00 0.08 0.00 95 1011.6
20260905075830 71 341 0.0 3.0 0.00 0.08 0.00 95 1011.7
20260905075330 71 341 1.0 4.0 0.00 0.08 0.00 96 1011.6
20260905074827 71 341 1.0 4.0 0.00 0.08 0.00 96 1011.7
20260905074320 71 341 1.0 4.0 0.00 0.08 0.00 96 1011.8
20260905073819 71 341 1.0 4.0 0.00 0.08 0.00 95 1011.7
20260905073316 71 341 0.0 2.0 0.00 0.08 0.00 95 1011.7
20260905072816 71 341 0.0 2.0 0.00 0.08 0.00 95 1011.6
20260905072317 71 341 1.0 2.0 0.00 0.08 0.00 95 1011.6
20260905071843 71 341 0.0 1.0 0.00 0.08 0.00 95 1011.7
20260905071326 71 341 0.0 1.0 0.00 0.08 0.00 95 1011.7
20260905070825 71 341 0.0 2.0 0.00 0.08 0.00 95 1011.9
20260905070325 71 341 0.0 2.0 0.00 0.08 0.00 95 1012.0
20260905065829 71 341 0.0 2.0 0.00 0.08 0.00 95 1012.2
20260905065323 71 341 1.0 4.0 0.00 0.08 0.00 96 1012.3
20260905064824 71 341 1.0 4.0 0.00 0.08 0.00 96 1012.4
20260905064351 71 341 1.0 3.0 0.00 0.08 0.00 96 1012.4
20260905063828 71 341 0.0 4.0 0.00 0.08 0.00 96 1012.5
20260905063328 71 341 1.0 4.0 0.00 0.08 0.00 96 1012.7
20260905062827 71 341 1.0 3.0 0.00 0.08 0.00 97 1012.6
20260905062326 71 341 0.0 3.0 0.00 0.08 0.00 97 1012.5
20260905061824 71 341 0.0 2.0 0.00 0.08 0.00 96 1012.6
20260905061323 71 341 0.0 1.0 0.00 0.08 0.00 96 1012.6
20260905060824 71 341 0.0 0.0 0.00 0.08 0.00 96 1012.7
20260905060323 71 341 0.0 0.0 0.00 0.08 0.00 96 1012.7
20260905055821 71 341 0.0 2.0 0.00 0.08 0.00 96 1012.9
20260905055318 71 341 0.0 2.0 0.00 0.08 0.00 96 1012.9
20260905054818 71 341 0.0 1.0 0.00 0.08 0.00 96 1013.0
20260905054315 71 341 0.0 1.0 0.00 0.08 0.00 96 1013.1
20260905053842 71 341 0.0 4.0 0.00 0.08 0.00 96 1013.2
20260905053318 71 341 0.0 4.0 0.00 0.08 0.08 96 1013.1
20260905052818 71 341 1.0 5.0 0.00 0.08 0.08 96 1013.3
20260905052318 71 341 2.0 5.0 0.00 0.08 0.08 96 1013.5
20260905051816 71 341 1.0 3.0 0.00 0.08 0.08 96 1013.6
20260905051322 71 341 1.0 3.0 0.00 0.08 0.08 96 1013.6
20260905050820 71 341 1.0 2.0 0.00 0.08 0.08 97 1013.5
20260905050318 71 341 0.0 2.0 0.00 0.08 0.08 97 1013.5
20260905045813 71 341 0.0 3.0 0.00 0.08 0.08 97 1013.8
20260905045313 71 341 1.0 4.0 0.00 0.08 0.08 97 1013.8
20260905044813 71 341 1.0 4.0 0.00 0.08 0.08 97 1013.9
20260905044312 71 341 0.0 1.0 0.00 0.08 0.08 97 1013.9
20260905043811 71 341 0.0 1.0 0.00 0.08 0.08 97 1014.1
20260905043357 71 341 0.0 1.0 0.00 0.08 0.08 97 1014.0
20260905042836 71 341 0.0 0.0 0.00 0.08 0.08 97 1014.0
20260905042316 71 341 0.0 0.0 0.00 0.08 0.08 97 1014.1
20260905041813 71 341 0.0 0.0 0.00 0.08 0.08 97 1014.1
20260905041312 71 341 0.0 1.0 0.00 0.08 0.08 97 1014.2
20260905040856 71 341 0.0 1.0 0.00 0.08 0.08 97 1014.3
20260905040337 71 341 0.0 0.0 0.00 0.08 0.08 97 1014.3
20260905035830 70 341 0.0 0.0 0.00 0.08 0.08 97 1014.2
20260905035329 70 341 0.0 0.0 0.00 0.08 0.08 97 1014.2
20260905034828 70 341 0.0 0.0 0.00 0.08 0.08 96 1014.2
20260905034328 71 341 0.0 0.0 0.00 0.08 0.08 97 1014.3
20260905033826 71 341 0.0 0.0 0.00 0.08 0.08 97 1014.3
20260905033325 71 341 0.0 0.0 0.00 0.08 0.08 97 1014.3
20260905032833 71 341 0.0 0.0 0.00 0.08 0.08 97 1014.2
20260905032331 71 341 0.0 0.0 0.00 0.08 0.08 97 1014.3
20260905031829 71 341 0.0 0.0 0.00 0.08 0.08 96 1014.2
20260905031324 71 341 0.0 0.0 0.00 0.08 0.08 96 1014.3
20260905030823 71 341 0.0 0.0 0.00 0.08 0.08 96 1014.2
20260905030323 71 341 0.0 0.0 0.00 0.08 0.08 96 1014.3
20260905025822 71 341 0.0 0.0 0.00 0.08 0.08 96 1014.4
20260905025321 71 341 0.0 0.0 0.00 0.08 0.08 96 1014.4
20260905024821 71 341 0.0 0.0 0.00 0.08 0.08 96 1014.2
20260905024347 71 341 0.0 0.0 0.00 0.08 0.08 96 1014.3
20260905023825 71 341 0.0 0.0 0.00 0.08 0.08 96 1014.2
20260905023342 71 341 0.0 0.0 0.00 0.08 0.08 96 1014.2
20260905022822 72 341 0.0 1.0 0.00 0.08 0.08 96 1014.4
20260905022322 72 341 0.0 1.0 0.00 0.08 0.08 96 1014.5
20260905021818 72 341 0.0 1.0 0.00 0.08 0.08 96 1014.7
20260905021318 72 341 0.0 2.0 0.00 0.08 0.08 96 1014.7
20260905020844 72 341 0.0 4.0 0.00 0.08 0.08 96 1014.8
20260905020324 72 341 1.0 4.0 0.00 0.08 0.08 96 1015.0
20260905015824 72 341 0.0 1.0 0.00 0.08 0.08 96 1014.9
20260905015323 72 341 0.0 1.0 0.00 0.08 0.08 96 1015.2
20260905014823 72 341 0.0 1.0 0.00 0.08 0.08 96 1015.2
20260905014349 72 341 0.0 1.0 0.00 0.08 0.08 96 1015.1
20260905013830 72 341 0.0 0.0 0.00 0.08 0.08 95 1015.2
20260905013331 72 341 0.0 0.0 0.00 0.08 0.08 95 1015.0
20260905012829 72 341 0.0 0.0 0.00 0.08 0.08 95 1014.8
20260905012324 72 341 0.0 0.0 0.00 0.08 0.08 94 1014.4
20260905011827 72 341 0.0 1.0 0.00 0.08 0.08 94 1014.2
20260905011354 73 341 0.0 1.0 0.00 0.08 0.08 94 1013.9
20260905010834 73 341 0.0 1.0 0.00 0.08 0.08 94 1013.9
20260905010335 73 341 0.0 1.0 0.00 0.08 0.08 94 1013.8
20260905005836 73 341 0.0 1.0 0.00 0.08 0.08 94 1013.6
20260905005337 73 341 0.0 1.0 0.00 0.08 0.08 94 1013.5
20260905004817 73 341 0.0 1.0 0.00 0.08 0.08 93 1013.5
20260905004318 73 341 0.0 3.0 0.00 0.08 0.08 93 1013.3
20260905003818 73 341 0.0 3.0 0.00 0.08 0.08 93 1013.3
20260905003319 73 341 0.0 1.0 0.00 0.08 0.08 93 1012.8
20260905002820 74 341 0.0 1.0 0.00 0.08 0.08 92 1012.3
20260905002342 74 341 0.0 1.0 0.00 0.08 0.08 92 1011.9
20260905001819 74 341 0.0 2.0 0.00 0.08 0.08 91 1011.8
20260905001347 74 341 1.0 2.0 0.00 0.08 0.08 91 1011.3
20260905000826 74 341 0.0 3.0 0.00 0.08 0.08 91 1011.4
20260905000325 74 341 1.0 3.0 0.00 0.08 0.08 91 1011.8
20260904235823 75 341 0.0 1.0 0.00 0.08 0.08 91 1011.3
20260904235323 75 341 0.0 1.0 0.00 0.08 0.08 90 1011.7
20260904234821 76 341 0.0 1.0 0.00 0.08 0.08 89 1012.4
20260904234327 76 341 0.0 1.0 0.00 0.08 0.08 88 1013.0
20260904233848 76 341 0.0 6.0 0.00 0.08 0.08 88 1013.7
20260904233327 76 341 0.0 6.0 0.00 0.08 0.08 88 1014.1
20260904232854 77 341 0.0 3.0 0.00 0.08 0.08 88 1014.3
20260904232331 77 341 1.0 3.0 0.00 0.08 0.08 88 1014.4
20260904231831 77 341 0.0 2.0 0.00 0.08 0.08 88 1014.9
20260904231328 77 341 0.0 6.0 0.00 0.08 0.08 88 1014.9
20260904230826 77 341 1.0 6.0 0.00 0.08 0.08 87 1015.0
20260904230326 77 341 0.0 3.0 0.00 0.08 0.08 87 1014.6
20260904225826 78 341 1.0 3.0 0.00 0.08 0.08 87 1014.2
20260904225324 78 341 0.0 9.0 0.00 0.08 0.08 86 1014.2
20260904224829 78 341 1.0 9.0 0.00 0.08 0.08 85 1014.4
20260904224322 79 341 2.0 9.0 0.00 0.08 0.08 86 1014.5
20260904223821 79 341 0.0 2.0 0.03 0.08 0.08 88 1013.4
20260904223320 79 341 0.0 2.0 0.08 0.08 0.08 88 1013.1
20260904222818 78 341 0.0 2.0 0.08 0.08 0.08 89 1013.0
20260904222317 78 341 0.0 2.0 0.08 0.08 0.08 91 1013.1
20260904221811 78 341 0.0 2.0 0.08 0.08 0.08 91 1012.5
20260904221338 78 341 0.0 1.0 0.08 0.08 0.08 91 1012.3
20260904220844 78 341 0.0 8.0 0.08 0.08 0.08 90 1012.2
20260904220322 78 341 0.0 8.0 0.08 0.08 0.08 88 1012.5
20260904215846 79 341 1.0 4.0 0.08 0.08 0.08 89 1013.3
20260904215346 79 341 1.0 2.0 0.08 0.08 0.08 84 1013.6
20260904214850 80 341 0.0 9.0 0.08 0.08 0.08 82 1013.3
20260904213821 88 341 6.0 15.0 0.05 0.05 0.05 68 1012.8
20260904213322 94 341 5.0 13.0 0.00 0.00 0.00 55 1012.3
20260904212821 97 341 1.0 3.0 0.00 0.00 0.00 58 1011.9
20260904212321 98 341 0.0 1.0 0.00 0.00 0.00 51 1011.6
20260904211821 99 341 0.0 2.0 0.00 0.00 0.00 50 1011.5
20260904211319 99 341 0.0 1.0 0.00 0.00 0.00 48 1011.6
20260904210813 100 341 0.0 4.0 0.00 0.00 0.00 48 1011.7
20260904210311 100 341 1.0 5.0 0.00 0.00 0.00 45 1011.7
20260904205835 101 341 1.0 6.0 0.00 0.00 0.00 46 1011.6
20260904205339 101 341 3.0 5.0 0.00 0.00 0.00 45 1011.6
20260904204844 101 341 2.0 5.0 0.00 0.00 0.00 44 1011.5
20260904204346 101 341 2.0 5.0 0.00 0.00 0.00 45 1011.6
20260904203824 102 341 2.0 5.0 0.00 0.00 0.00 44 1011.6
20260904203349 102 341 1.0 5.0 0.00 0.00 0.00 43 1011.6
20260904202821 102 341 1.0 5.0 0.00 0.00 0.00 46 1011.7
20260904202319 102 341 0.0 2.0 0.00 0.00 0.00 47 1011.7
20260904201818 101 341 0.0 1.0 0.00 0.00 0.00 47 1011.8
20260904201318 100 341 0.0 1.0 0.00 0.00 0.00 51 1011.8
20260904200842 99 341 0.0 2.0 0.00 0.00 0.00 51 1011.7
20260904200320 99 341 1.0 2.0 0.00 0.00 0.00 52 1011.7
20260904195820 99 341 0.0 4.0 0.00 0.00 0.00 47 1011.9
20260904195320 101 341 2.0 5.0 0.00 0.00 0.00 45 1011.8
20260904194818 100 341 1.0 5.0 0.00 0.00 0.00 45 1011.9
20260904194318 101 341 2.0 5.0 0.00 0.00 0.00 46 1011.9
20260904193817 101 341 2.0 5.0 0.00 0.00 0.00 46 1012.0
20260904193358 101 341 3.0 5.0 0.00 0.00 0.00 46 1012.3
20260904192836 101 341 2.0 5.0 0.00 0.00 0.00 46 1012.3
20260904192336 101 341 2.0 5.0 0.00 0.00 0.00 44 1012.5
20260904191835 101 341 2.0 5.0 0.00 0.00 0.00 45 1012.5
20260904191333 101 341 2.0 4.0 0.00 0.00 0.00 46 1012.6
20260904190832 101 341 2.0 4.0 0.00 0.00 0.00 44 1012.8
20260904190332 102 341 1.0 6.0 0.00 0.00 0.00 44 1012.9
20260904185856 102 341 1.0 6.0 0.00 0.00 0.00 43 1012.9
20260904185334 105 341 1.0 2.0 0.00 0.00 0.00 44 1013.0
20260904184832 106 341 1.0 2.0 0.00 0.00 0.00 45 1013.1
20260904184326 105 341 1.0 3.0 0.00 0.00 0.00 47 1013.2
20260904183823 104 341 0.0 3.0 0.00 0.00 0.00 45 1013.2
20260904183348 103 341 1.0 6.0 0.00 0.00 0.00 48 1013.5
20260904182854 103 341 2.0 6.0 0.00 0.00 0.00 47 1013.5
20260904182333 102 341 2.0 4.0 0.00 0.00 0.00 46 1013.5
20260904181831 101 341 1.0 3.0 0.00 0.00 0.00 48 1013.7
20260904181330 101 341 1.0 5.0 0.00 0.00 0.00 51 1013.8
20260904180348 100 341 2.0 7.0 0.00 0.00 0.00 47 1014.0
20260904175825 100 341 1.0 5.0 0.00 0.00 0.00 50 1013.9
20260904175324 98 341 1.0 5.0 0.00 0.00 0.00 49 1014.0
20260904174823 99 341 3.0 5.0 0.00 0.00 0.00 50 1014.2
20260904174322 98 341 0.0 5.0 0.00 0.00 0.00 53 1014.2
20260904173821 98 341 2.0 5.0 0.00 0.00 0.00 51 1014.2
20260904173347 98 341 2.0 5.0 0.00 0.00 0.00 53 1014.2
20260904172852 98 341 1.0 3.0 0.00 0.00 0.00 53 1014.3
20260904172328 98 341 1.0 5.0 0.00 0.00 0.00 54 1014.3
20260904171822 98 341 1.0 7.0 0.00 0.00 0.00 52 1014.3
20260904171321 98 341 2.0 7.0 0.00 0.00 0.00 52 1014.3
20260904170820 98 341 1.0 3.0 0.00 0.00 0.00 55 1014.4
20260904170345 98 341 2.0 3.0 0.00 0.00 0.00 55 1014.5
20260904165823 98 341 1.0 7.0 0.00 0.00 0.00 51 1014.5
20260904165321 98 341 2.0 7.0 0.00 0.00 0.00 53 1014.4
20260904164820 97 341 2.0 5.0 0.00 0.00 0.00 52 1014.5
20260904164318 97 341 2.0 5.0 0.00 0.00 0.00 56 1014.5
20260904163816 97 341 1.0 3.0 0.00 0.00 0.00 55 1014.7
20260904163316 98 341 0.0 3.0 0.00 0.00 0.00 55 1014.8
20260904162816 97 341 0.0 4.0 0.00 0.00 0.00 57 1014.8
20260904162314 97 341 1.0 4.0 0.00 0.00 0.00 55 1014.9
20260904161836 96 341 2.0 4.0 0.00 0.00 0.00 55 1015.0
20260904161336 96 341 1.0 4.0 0.00 0.00 0.00 58 1015.1
20260904160835 96 341 1.0 5.0 0.00 0.00 0.00 57 1015.0
20260904160333 95 341 2.0 5.0 0.00 0.00 0.00 57 1014.9
20260904155832 94 341 3.0 4.0 0.00 0.00 0.00 57 1015.0
20260904155331 94 341 0.0 4.0 0.00 0.00 0.00 58 1015.1
20260904154858 94 341 2.0 6.0 0.00 0.00 0.00 60 1015.2
20260904154336 93 341 0.0 3.0 0.00 0.00 0.00 65 1015.2
20260904153833 92 341 1.0 5.0 0.00 0.00 0.00 66 1015.3
20260904153338 92 341 2.0 6.0 0.00 0.00 0.00 66 1015.2
20260904152812 92 341 3.0 6.0 0.00 0.00 0.00 64 1015.2
20260904152312 92 341 2.0 5.0 0.00 0.00 0.00 66 1015.2
20260904151813 92 341 2.0 6.0 0.00 0.00 0.00 66 1015.1
20260904151359 92 341 3.0 5.0 0.00 0.00 0.00 65 1015.1
20260904150836 92 341 1.0 5.0 0.00 0.00 0.00 67 1015.2
20260904150336 91 341 1.0 6.0 0.00 0.00 0.00 69 1015.3
20260904145815 90 341 2.0 4.0 0.00 0.00 0.00 69 1015.2
20260904145315 90 341 2.0 5.0 0.00 0.00 0.00 70 1015.2
20260904144840 89 341 1.0 5.0 0.00 0.00 0.00 71 1015.1
20260904144341 88 341 1.0 4.0 0.00 0.00 0.00 72 1015.1
20260904143819 88 341 1.0 5.0 0.00 0.00 0.00 73 1015.2
20260904143318 88 341 2.0 5.0 0.00 0.00 0.00 74 1015.2
20260904142816 87 341 1.0 7.0 0.00 0.00 0.00 74 1015.1
20260904142313 87 341 3.0 7.0 0.00 0.00 0.00 73 1015.2
20260904141811 86 341 2.0 6.0 0.00 0.00 0.00 75 1015.1
20260904141357 86 341 1.0 6.0 0.00 0.00 0.00 76 1015.1
20260904140835 86 341 2.0 6.0 0.00 0.00 0.00 75 1015.1
20260904140336 86 341 1.0 6.0 0.00 0.00 0.00 77 1015.1
20260904135835 85 341 1.0 4.0 0.00 0.00 0.00 78 1015.2
20260904135333 85 341 2.0 6.0 0.00 0.00 0.00 78 1015.2
20260904134827 84 341 1.0 5.0 0.00 0.00 0.00 80 1015.1
20260904134324 84 341 1.0 7.0 0.00 0.00 0.00 79 1015.0
20260904133823 83 341 2.0 7.0 0.00 0.00 0.00 80 1015.0
20260904133321 83 341 1.0 4.0 0.00 0.00 0.00 81 1015.0
20260904132820 83 341 1.0 5.0 0.00 0.00 0.00 81 1015.1
20260904132319 82 341 2.0 6.0 0.00 0.00 0.00 81 1015.1
20260904131819 82 341 0.0 7.0 0.00 0.00 0.00 82 1015.0
20260904131316 82 341 2.0 7.0 0.00 0.00 0.00 82 1015.1
20260904130816 82 341 2.0 5.0 0.00 0.00 0.00 83 1015.2
20260904130317 81 341 2.0 5.0 0.00 0.00 0.00 83 1015.2
20260904125816 81 341 1.0 6.0 0.00 0.00 0.00 84 1015.3
20260904125314 81 341 2.0 6.0 0.00 0.00 0.00 84 1015.2
20260904124856 81 341 2.0 6.0 0.00 0.00 0.00 84 1015.4
20260904124333 81 341 2.0 5.0 0.00 0.00 0.00 85 1015.5
20260904123832 80 341 2.0 5.0 0.00 0.00 0.00 86 1015.4
20260904123331 80 341 2.0 5.0 0.00 0.00 0.00 86 1015.4
20260904122857 80 341 3.0 5.0 0.00 0.00 0.00 86 1015.4
20260904122336 80 341 2.0 7.0 0.00 0.00 0.00 86 1015.3
20260904121835 79 341 3.0 7.0 0.00 0.00 0.00 87 1015.3
20260904121336 79 341 3.0 6.0 0.00 0.00 0.00 87 1015.3
20260904120816 79 341 2.0 4.0 0.00 0.00 0.00 88 1015.2
20260904120315 78 341 1.0 5.0 0.00 0.00 0.00 89 1015.2
20260904115816 78 341 2.0 5.0 0.00 0.00 0.00 89 1015.3
20260904115339 78 341 1.0 6.0 0.00 0.00 0.00 89 1015.2
20260904114816 78 341 1.0 5.0 0.00 0.00 0.00 90 1015.1
20260904114315 77 341 1.0 6.0 0.00 0.00 0.00 90 1015.1
20260904113815 77 341 2.0 6.0 0.00 0.00 0.00 90 1015.2
20260904113316 77 341 1.0 5.0 0.00 0.00 0.00 91 1015.2
20260904112817 77 341 1.0 5.0 0.00 0.00 0.00 91 1015.1
20260904112316 77 341 1.0 3.0 0.00 0.00 0.00 91 1015.1
20260904111817 77 341 1.0 4.0 0.00 0.00 0.00 91 1015.0
20260904111317 77 341 1.0 3.0 0.00 0.00 0.00 91 1015.0
20260904110817 76 341 1.0 3.0 0.00 0.00 0.00 91 1015.1
20260904110318 76 341 0.0 3.0 0.00 0.00 0.00 91 1015.0
20260904105817 76 341 1.0 3.0 0.00 0.00 0.00 91 1015.1
20260904105313 76 341 1.0 2.0 0.00 0.00 0.00 91 1015.1
20260904104812 77 341 0.0 2.0 0.00 0.00 0.00 90 1015.0
20260904104312 77 341 0.0 1.0 0.00 0.00 0.00 90 1014.9
20260904103812 77 341 0.0 1.0 0.00 0.00 0.00 90 1014.8
20260904103313 77 341 0.0 1.0 0.00 0.00 0.00 90 1014.8
20260904102812 77 341 0.0 1.0 0.00 0.00 0.00 90 1014.8
20260904102313 77 341 0.0 2.0 0.00 0.00 0.00 90 1014.7
20260904101814 77 341 0.0 2.0 0.00 0.00 0.00 89 1014.8
20260904101313 77 341 1.0 2.0 0.00 0.00 0.00 89 1014.9
20260904100813 77 341 0.0 1.0 0.00 0.00 0.00 89 1014.8
20260904100311 77 341 0.0 3.0 0.00 0.00 0.00 89 1014.9
20260904095836 78 341 1.0 3.0 0.00 0.00 0.00 89 1014.9
20260904095336 78 341 0.0 2.0 0.00 0.00 0.00 89 1014.9
20260904094836 78 341 0.0 2.0 0.00 0.00 0.00 88 1014.9
20260904094337 78 341 1.0 3.0 0.00 0.00 0.00 88 1014.9
20260904093836 78 341 1.0 4.0 0.00 0.00 0.00 88 1015.0
20260904093337 78 341 1.0 4.0 0.00 0.00 0.00 88 1014.9
20260904092838 78 341 1.0 4.0 0.00 0.00 0.00 88 1014.8
20260904092317 78 341 2.0 4.0 0.00 0.00 0.00 88 1014.8
20260904091817 78 341 1.0 3.0 0.00 0.00 0.00 87 1014.8
20260904091316 78 341 1.0 3.0 0.00 0.00 0.00 87 1014.8
20260904090816 78 341 1.0 4.0 0.00 0.00 0.00 87 1014.8
20260904090318 78 341 1.0 4.0 0.00 0.00 0.00 87 1014.8
20260904085817 78 341 1.0 5.0 0.00 0.00 0.00 87 1014.9
20260904085312 78 341 1.0 5.0 0.00 0.00 0.00 87 1014.6
20260904084838 78 341 1.0 3.0 0.00 0.00 0.00 86 1014.6
20260904084337 79 341 0.0 3.0 0.00 0.00 0.00 86 1014.5
20260904083838 79 341 1.0 3.0 0.00 0.00 0.00 86 1014.5
20260904083336 79 341 0.0 3.0 0.00 0.00 0.00 86 1014.5